Stündliche Wetter Darwin

Heute, 20 Januar, Mittwoch

Zeit Temperatur Niederschläge Wind Luftdruck Luftfeuchtigkeit
00:00 +27°C° 0 mm 4 m/S 756 mmHg 95%
01:00 +26°C° 0 mm 4 m/S 756 mmHg 96%
02:00 +26°C° 0 mm 4 m/S 755 mmHg 96%
03:00 +26°C° 0 mm 4 m/S 755 mmHg 96%
04:00 +26°C° 0.1 mm 4 m/S 755 mmHg 96%
05:00 +26°C° 0.1 mm 4 m/S 755 mmHg 96%
06:00 +26°C° 0.1 mm 4 m/S 755 mmHg 96%
07:00 +27°C° 0.1 mm 4 m/S 756 mmHg 92%
08:00 +29°C° 0.1 mm 4 m/S 756 mmHg 88%
09:00 +30°C° 0.1 mm 4 m/S 756 mmHg 84%
10:00 +32°C° 0.5 mm 5 m/S 756 mmHg 81%
11:00 +33°C° 0.5 mm 5 m/S 756 mmHg 77%
12:00 +34°C° 0.5 mm 6 m/S 755 mmHg 74%
13:00 +34°C° 1.7 mm 6 m/S 755 mmHg 73%
14:00 +34°C° 1.7 mm 6 m/S 755 mmHg 73%
15:00 +34°C° 1.7 mm 6 m/S 754 mmHg 73%
16:00 +33°C° 2.6 mm 6 m/S 754 mmHg 77%
17:00 +32°C° 2.6 mm 5 m/S 754 mmHg 82%
18:00 +30°C° 2.6 mm 5 m/S 755 mmHg 86%
19:00 +30°C° 1 mm 4 m/S 755 mmHg 87%
20:00 +29°C° 1 mm 4 m/S 755 mmHg 88%
21:00 +29°C° 1 mm 4 m/S 756 mmHg 89%
22:00 +29°C° 0 mm 4 m/S 756 mmHg 89%
23:00 +29°C° 0 mm 4 m/S 756 mmHg 89%

Morgen, 21 Januar, Donnerstag

Zeit Temperatur Niederschläge Wind Luftdruck Luftfeuchtigkeit
00:00 +29°C° 0 mm 4 m/S 756 mmHg 90%
01:00 +29°C° 0 mm 4 m/S 756 mmHg 90%
02:00 +28°C° 0 mm 4 m/S 755 mmHg 90%
03:00 +28°C° 0 mm 4 m/S 755 mmHg 90%
04:00 +28°C° 0 mm 3 m/S 755 mmHg 90%
05:00 +28°C° 0 mm 3 m/S 755 mmHg 89%
06:00 +29°C° 0 mm 3 m/S 755 mmHg 89%
07:00 +30°C° 0 mm 3 m/S 756 mmHg 85%
08:00 +31°C° 0 mm 3 m/S 756 mmHg 80%
09:00 +33°C° 0 mm 3 m/S 757 mmHg 76%
10:00 +34°C° 0 mm 3 m/S 756 mmHg 73%
11:00 +34°C° 0 mm 3 m/S 756 mmHg 69%
12:00 +35°C° 0 mm 3 m/S 755 mmHg 66%
13:00 +35°C° 0 mm 3 m/S 755 mmHg 65%
14:00 +35°C° 0 mm 3 m/S 754 mmHg 64%
15:00 +35°C° 0 mm 3 m/S 754 mmHg 64%
16:00 +34°C° 0 mm 4 m/S 754 mmHg 68%
17:00 +33°C° 0 mm 4 m/S 754 mmHg 72%
18:00 +32°C° 0 mm 5 m/S 754 mmHg 77%
19:00 +32°C° 0.1 mm 4 m/S 754 mmHg 79%
20:00 +30°C° 0.1 mm 4 m/S 755 mmHg 81%
21:00 +30°C° 0.1 mm 4 m/S 755 mmHg 84%
22:00 +30°C° 0 mm 4 m/S 755 mmHg 84%
23:00 +30°C° 0 mm 3 m/S 755 mmHg 85%

übermorgen, 22 Januar, Freitag

Zeit Temperatur Niederschläge Wind Luftdruck Luftfeuchtigkeit
00:00 +30°C° 0 mm 3 m/S 755 mmHg 86%
01:00 +29°C° 1.4 mm 3 m/S 755 mmHg 87%
02:00 +29°C° 1.4 mm 3 m/S 755 mmHg 88%
03:00 +29°C° 1.4 mm 3 m/S 754 mmHg 89%
04:00 +29°C° 0.8 mm 3 m/S 754 mmHg 88%
05:00 +28°C° 0.8 mm 3 m/S 754 mmHg 87%
06:00 +28°C° 0.8 mm 3 m/S 755 mmHg 86%
07:00 +29°C° 0 mm 3 m/S 755 mmHg 83%
08:00 +30°C° 0 mm 3 m/S 755 mmHg 79%
09:00 +33°C° 0 mm 3 m/S 756 mmHg 75%
10:00 +33°C° 0 mm 3 m/S 756 mmHg 73%
11:00 +34°C° 0 mm 3 m/S 755 mmHg 70%
12:00 +34°C° 0 mm 3 m/S 755 mmHg 67%
13:00 +34°C° 0 mm 3 m/S 755 mmHg 66%
14:00 +35°C° 0 mm 2 m/S 754 mmHg 64%
15:00 +35°C° 0 mm 2 m/S 753 mmHg 63%
16:00 +34°C° 0.5 mm 3 m/S 754 mmHg 68%
17:00 +33°C° 0.5 mm 3 m/S 754 mmHg 73%
18:00 +32°C° 0.5 mm 4 m/S 754 mmHg 79%
19:00 +30°C° 0.3 mm 3 m/S 754 mmHg 80%
20:00 +30°C° 0.3 mm 3 m/S 755 mmHg 82%
21:00 +29°C° 0.3 mm 3 m/S 755 mmHg 83%
22:00 +29°C° 0 mm 3 m/S 755 mmHg 83%
23:00 +29°C° 0 mm 3 m/S 755 mmHg 83%

23 Januar, Samstag

Zeit Temperatur Niederschläge Wind Luftdruck Luftfeuchtigkeit
00:00 +29°C° 0 mm 2 m/S 755 mmHg 83%
01:00 +29°C° 0.5 mm 3 m/S 755 mmHg 85%
02:00 +28°C° 0.5 mm 3 m/S 754 mmHg 87%
03:00 +28°C° 0.5 mm 3 m/S 754 mmHg 88%
04:00 +28°C° 0.1 mm 3 m/S 754 mmHg 89%
05:00 +27°C° 0.1 mm 3 m/S 755 mmHg 90%
06:00 +27°C° 0.1 mm 2 m/S 755 mmHg 91%
07:00 +28°C° 0 mm 2 m/S 755 mmHg 89%
08:00 +28°C° 0 mm 2 m/S 756 mmHg 87%
09:00 +29°C° 0 mm 1 m/S 756 mmHg 85%
10:00 +29°C° 0 mm 2 m/S 756 mmHg 82%
11:00 +30°C° 0 mm 2 m/S 755 mmHg 79%
12:00 +31°C° 0 mm 2 m/S 755 mmHg 76%
13:00 +31°C° 0 mm 2 m/S 755 mmHg 74%
14:00 +33°C° 0 mm 3 m/S 754 mmHg 71%
15:00 +33°C° 0 mm 3 m/S 753 mmHg 68%
16:00 +31°C° 0 mm 3 m/S 754 mmHg 70%
17:00 +32°C° 0 mm 4 m/S 754 mmHg 73%
18:00 +30°C° 0 mm 4 m/S 754 mmHg 75%
19:00 +30°C° 0.2 mm 3 m/S 754 mmHg 76%
20:00 +29°C° 0.2 mm 3 m/S 755 mmHg 76%
21:00 +29°C° 0.2 mm 2 m/S 755 mmHg 77%
22:00 +29°C° 0.2 mm 2 m/S 755 mmHg 78%
23:00 +29°C° 0.2 mm 2 m/S 756 mmHg 79%

24 Januar, Sonntag

Zeit Temperatur Niederschläge Wind Luftdruck Luftfeuchtigkeit
00:00 +29°C° 0.2 mm 2 m/S 756 mmHg 80%
01:00 +28°C° 0.4 mm 2 m/S 755 mmHg 83%
02:00 +28°C° 0.4 mm 2 m/S 755 mmHg 85%
03:00 +28°C° 0.4 mm 2 m/S 754 mmHg 88%
04:00 +27°C° 0.8 mm 2 m/S 754 mmHg 90%
05:00 +27°C° 0.8 mm 2 m/S 755 mmHg 91%
06:00 +27°C° 0.8 mm 1 m/S 755 mmHg 93%
07:00 +27°C° 0.3 mm 1 m/S 755 mmHg 91%
08:00 +28°C° 0.3 mm 1 m/S 756 mmHg 89%
09:00 +28°C° 0.3 mm 1 m/S 756 mmHg 87%
10:00 +29°C° 0.3 mm 1 m/S 756 mmHg 86%
11:00 +29°C° 0.3 mm 1 m/S 755 mmHg 84%
12:00 +30°C° 0.3 mm 2 m/S 755 mmHg 83%
13:00 +30°C° 0.3 mm 2 m/S 755 mmHg 83%
14:00 +30°C° 0.3 mm 3 m/S 754 mmHg 82%
15:00 +30°C° 0.3 mm 3 m/S 754 mmHg 82%
16:00 +29°C° 1.1 mm 3 m/S 754 mmHg 83%
17:00 +29°C° 1.1 mm 4 m/S 754 mmHg 85%
18:00 +29°C° 1.1 mm 4 m/S 754 mmHg 86%
19:00 +29°C° 0.3 mm 4 m/S 755 mmHg 86%
20:00 +28°C° 0.3 mm 4 m/S 755 mmHg 86%
21:00 +28°C° 0.3 mm 4 m/S 755 mmHg 86%
22:00 +28°C° 0 mm 4 m/S 755 mmHg 86%
23:00 +28°C° 0 mm 4 m/S 755 mmHg 85%

25 Januar, Montag

Zeit Temperatur Niederschläge Wind Luftdruck Luftfeuchtigkeit
00:00 +28°C° 0 mm 4 m/S 755 mmHg 85%
01:00 +28°C° 0.5 mm 4 m/S 754 mmHg 86%
02:00 +28°C° 0.5 mm 4 m/S 754 mmHg 88%
03:00 +28°C° 0.5 mm 5 m/S 754 mmHg 89%
04:00 +28°C° 1.5 mm 5 m/S 754 mmHg 90%
05:00 +28°C° 1.5 mm 4 m/S 754 mmHg 90%
06:00 +27°C° 1.5 mm 4 m/S 755 mmHg 91%
07:00 +28°C° 1.6 mm 5 m/S 755 mmHg 88%
08:00 +29°C° 1.6 mm 5 m/S 755 mmHg 85%
09:00 +30°C° 1.6 mm 6 m/S 756 mmHg 82%
10:00 +30°C° 1.4 mm 6 m/S 755 mmHg 81%
11:00 +30°C° 1.4 mm 6 m/S 755 mmHg 81%
12:00 +30°C° 1.4 mm 6 m/S 754 mmHg 81%
13:00 +30°C° 0.5 mm 6 m/S 754 mmHg 80%
14:00 +30°C° 0.5 mm 7 m/S 753 mmHg 79%
15:00 +32°C° 0.5 mm 7 m/S 753 mmHg 79%
16:00 +30°C° 0.4 mm 7 m/S 753 mmHg 80%
17:00 +30°C° 0.4 mm 6 m/S 753 mmHg 82%
18:00 +29°C° 0.4 mm 6 m/S 753 mmHg 84%
19:00 +29°C° 0.6 mm 6 m/S 754 mmHg 85%
20:00 +28°C° 0.6 mm 5 m/S 754 mmHg 86%
21:00 +28°C° 0.6 mm 5 m/S 754 mmHg 88%
22:00 +28°C° 0.9 mm 5 m/S 754 mmHg 88%
23:00 +28°C° 0.9 mm 4 m/S 754 mmHg 88%
Mehr zeigen

Wir brauchen deine Erlaubnis

Meteoprog und unser Service Anbieter werden persönliche Daten aufbewahren, so wie Cookies, Geräte Bezeichnung oder ähnliche Technologien von deinem Gerät und Prozess, so wie Persönliche Daten Inhalte und Werbungen, genauso wie social Media und den Verkehr zu analysieren.

  • Aufbewahrung und/oder Zugang zu deiner Geräte Informationen.

    Cookies, Geräte Bezeichnung oder andere Informationen, können aufbewahrt oder Zugang zu deinem Gerät erhalten, für den Grund, der oben angegeben wird.

  • Personalisierte Werbung und Inhalte, Messungen, Einblick in das Publikum und Produkt Entwicklung.

    Werbungen und Inhalte können personalisiert werden, basierend auf ein Profil. Mehr Daten können besser personalisierte Werbungen und Inhalte hinzufügen. Werbung und Inhalte können gezeigt und gemessen werden. Einblicke über das Publikum, welche die Werbung gesehen haben und den Inhalt, können abgeleitet werden. So wie Daten können genutzt werden, um es zu verbessern oder die Benutzer Erfahrung zu verbessern das System und die Software.

Wenn du “Ich stimme zu” klickst, erlaubst du uns, die Cookies zu benutzen die Geräte Bezeichnung, den Web oder ähnliche Technologien zu benutzen. Deine Settings, können in deinem Gerät bei deinem Browser geändert werden.

Für den bestimmten Zweck, berechtigten Interessen beruhen darauf, mehr als auf den Inhalt. Du kannst mehr darüber in unseren Privaten und Cookie Politik lesen.